COSMOS 1275 DEB, 12748

Orbit data source: Space-Track

COSMOS 1275 DEB, 12748 is space debris in LEO originally from a launch on Thu, 04 Jun 1981 UTC launched from the Plesetsk Missile And Space Complex (PKMTR). Debris objects in space refer to the collection of defunct objects orbiting the Earth. Examples of debris include non-operational satellites, rocket bodies, and fragments generated from explosions, collisions, or faulty payload assembly.

Loading next visibility...
Identifier
12748, 1981-053CR
Orbit
LEO
Country
Flag of CISCIS
Related business
Manufacturer
Unknown
Mission
Spacecraft
Bus & Motor
Unknown
Mass
Unknown
Launch date (UTC)
1981-06-04 (45 years ago)
Launch vehicle
Unknown
Launch site
Plesetsk Missile And Space Complex (PKMTR)
Object type
Payload
Rocket body
Debris
Shape & HBR
Unknown shape, 0.2 m
Radar Cross Section
Small (<0.1 m²)

Expand to show TLE details & history
Last TLE update: 1 day ago

TLE from 1 day ago
0 COSMOS 1275 DEB
1 12748U 81053CR  26035.27733240  .00000334  00000-0  33262-3 0  9992
2 12748  82.9872 112.7353 0042580 326.0991  93.6771 13.74887876228117
Epoch: 2026-02-04T06:39Z
TLE epoch observation values (Epoch: 2026-02-04T06:39:21.519Z)
Latitude
59.61467°
Longitude
-109.50425°
Altitude
994.341 km
Speed
7.359 km/s
True Right ascension
08h 19m 07s
True Declination
59° 28' 09"
Sunlit
Object was in full shadow at epoch
Visualization orbit readout
Latitude
Unknown
Longitude
Unknown
Altitude
Unknown
Speed
Unknown
Apparent Right ascension
Unknown
Apparent Declination
Unknown
Sunlit
N/A
Visualization observer readout
Local Sidereal Time
14:53:25
Azimuth
Unknown
Elevation
Unknown
Doppler factor
Unknown
Orbital elements
Apogee altitude
1,010.55 km
Perigee altitude
947.894 km
Semi-major axis
7,357.359 km
Eccentricity
0.00426
Inclination
82.9872°
RAAN
112.7353°
Arg. of periapsis
326.0991°
True anomaly
94.16385°
Mean anomaly
93.6771°
Eccentric anomaly
93.92049°
Mean motion
3.43922 °/min
Orbital period
104.67 mins
BSTAR
0.00033262
Loading maneuver chart data...
Computing Atmospheric mass density...
Loading historical data...
Loading historical data...
Loading historical data...
Loading historical data...
Loading historical data...
Loading historical data...
Loading historical data...

Documentation

Showing up to 5 results
|